When you browse on this site, cookies collect data to enhance your experience and personalize the content and advertising you see.
Visit our Privacy Policy to learn more. By continuing to use the site, you agree to this use of cookies and data.
  • In United Kingdom
  • List of Countries
  • For 7 days
  • Water Temperature
  • Satellite Maps
  • Weather Map
  • Weather Widgets
  • user-avatar
    Login

    Hourly Weather Tunja

    Today, 23 April, Tuesday

    Time Temperature Precipitation Wind Pressure Humidity
    00:00 +10°C° 0 mm 0 mps 548 mmHg 94%
    01:00 +10°C° 0 mm 0 mps 548 mmHg 94%
    02:00 +10°C° 0 mm 0 mps 548 mmHg 94%
    03:00 +9°C° 0 mm 0 mps 548 mmHg 94%
    04:00 +9°C° 0 mm 0 mps 547 mmHg 94%
    05:00 +10°C° 0 mm 0 mps 548 mmHg 92%
    06:00 +11°C° 0 mm 0 mps 549 mmHg 90%
    07:00 +11°C° 0 mm 0 mps 549 mmHg 89%
    08:00 +13°C° 0.1 mm 0 mps 551 mmHg 82%
    09:00 +16°C° 0.1 mm 1 mps 552 mmHg 76%
    10:00 +19°C° 0.1 mm 1 mps 553 mmHg 70%
    11:00 +19°C° 1.1 mm 1 mps 552 mmHg 74%
    12:00 +18°C° 1.1 mm 1 mps 551 mmHg 78%
    13:00 +18°C° 1.1 mm 1 mps 551 mmHg 82%
    14:00 +16°C° 1.3 mm 1 mps 550 mmHg 84%
    15:00 +16°C° 1.3 mm 1 mps 549 mmHg 86%
    16:00 +16°C° 1.3 mm 1 mps 548 mmHg 88%
    17:00 +15°C° 1.2 mm 1 mps 548 mmHg 90%
    18:00 +13°C° 1.2 mm 0 mps 548 mmHg 93%
    19:00 +12°C° 1.2 mm 0 mps 548 mmHg 96%
    20:00 +12°C° 1.5 mm 0 mps 549 mmHg 96%
    21:00 +12°C° 1.5 mm 0 mps 549 mmHg 96%
    22:00 +13°C° 1.5 mm 1 mps 550 mmHg 97%
    23:00 +12°C° 3 mm 1 mps 549 mmHg 97%

    Tomorrow, 24 April, Wednesday

    Time Temperature Precipitation Wind Pressure Humidity
    00:00 +12°C° 3 mm 1 mps 549 mmHg 97%
    01:00 +12°C° 3 mm 1 mps 549 mmHg 97%
    02:00 +11°C° 1.3 mm 1 mps 548 mmHg 96%
    03:00 +11°C° 1.3 mm 1 mps 548 mmHg 95%
    04:00 +11°C° 1.3 mm 1 mps 547 mmHg 95%
    05:00 +11°C° 0.1 mm 1 mps 548 mmHg 93%
    06:00 +12°C° 0.1 mm 1 mps 549 mmHg 91%
    07:00 +12°C° 0.1 mm 1 mps 549 mmHg 88%
    08:00 +14°C° 0 mm 1 mps 551 mmHg 82%
    09:00 +16°C° 0 mm 1 mps 552 mmHg 75%
    10:00 +18°C° 0 mm 2 mps 553 mmHg 68%
    11:00 +18°C° 0.7 mm 2 mps 553 mmHg 71%
    12:00 +19°C° 0.7 mm 1 mps 552 mmHg 73%
    13:00 +19°C° 0.7 mm 1 mps 552 mmHg 75%
    14:00 +19°C° 0.9 mm 1 mps 551 mmHg 78%
    15:00 +18°C° 0.9 mm 1 mps 550 mmHg 81%
    16:00 +18°C° 0.9 mm 1 mps 549 mmHg 83%
    17:00 +15°C° 0.6 mm 1 mps 549 mmHg 88%
    18:00 +14°C° 0.6 mm 1 mps 549 mmHg 92%
    19:00 +13°C° 0.6 mm 1 mps 549 mmHg 96%
    20:00 +13°C° 0.1 mm 1 mps 549 mmHg 96%
    21:00 +12°C° 0.1 mm 1 mps 549 mmHg 97%
    22:00 +12°C° 0.1 mm 1 mps 549 mmHg 97%
    23:00 +12°C° 0.1 mm 1 mps 549 mmHg 97%

    Day after tomorrow, 25 April, Thursday

    Time Temperature Precipitation Wind Pressure Humidity
    00:00 +12°C° 0.1 mm 1 mps 549 mmHg 96%
    01:00 +11°C° 0.1 mm 1 mps 548 mmHg 96%
    02:00 +11°C° 0.1 mm 1 mps 548 mmHg 96%
    03:00 +11°C° 0.1 mm 1 mps 548 mmHg 95%
    04:00 +11°C° 0.1 mm 1 mps 548 mmHg 95%
    05:00 +11°C° 0.1 mm 1 mps 548 mmHg 94%
    06:00 +12°C° 0.1 mm 1 mps 549 mmHg 93%
    07:00 +12°C° 0.1 mm 1 mps 550 mmHg 92%
    08:00 +13°C° 0.1 mm 1 mps 550 mmHg 89%
    09:00 +14°C° 0.1 mm 2 mps 551 mmHg 85%
    10:00 +15°C° 0.1 mm 2 mps 552 mmHg 82%
    11:00 +16°C° 0.2 mm 2 mps 552 mmHg 79%
    12:00 +17°C° 0.2 mm 2 mps 551 mmHg 77%
    13:00 +17°C° 0.2 mm 2 mps 551 mmHg 75%
    14:00 +17°C° 0.4 mm 2 mps 551 mmHg 77%
    15:00 +17°C° 0.4 mm 2 mps 550 mmHg 79%
    16:00 +16°C° 0.4 mm 2 mps 550 mmHg 81%
    17:00 +15°C° 0.3 mm 1 mps 549 mmHg 86%
    18:00 +14°C° 0.3 mm 1 mps 549 mmHg 91%
    19:00 +13°C° 0.3 mm 1 mps 549 mmHg 96%
    20:00 +13°C° 0.1 mm 1 mps 550 mmHg 97%
    21:00 +12°C° 0.1 mm 1 mps 550 mmHg 97%
    22:00 +12°C° 0.1 mm 1 mps 550 mmHg 97%
    23:00 +12°C° 0.6 mm 1 mps 550 mmHg 97%

    26 April, Friday

    Time Temperature Precipitation Wind Pressure Humidity
    00:00 +12°C° 0.6 mm 1 mps 549 mmHg 97%
    01:00 +12°C° 0.6 mm 1 mps 549 mmHg 97%
    02:00 +12°C° 1.5 mm 1 mps 549 mmHg 97%
    03:00 +12°C° 1.5 mm 1 mps 549 mmHg 97%
    04:00 +12°C° 1.5 mm 1 mps 549 mmHg 96%
    05:00 +12°C° 1.4 mm 1 mps 549 mmHg 96%
    06:00 +12°C° 1.4 mm 1 mps 550 mmHg 95%
    07:00 +12°C° 1.4 mm 1 mps 550 mmHg 94%
    08:00 +12°C° 1.2 mm 1 mps 550 mmHg 93%
    09:00 +13°C° 1.2 mm 1 mps 551 mmHg 91%
    10:00 +13°C° 1.2 mm 1 mps 551 mmHg 90%
    11:00 +14°C° 0.4 mm 1 mps 551 mmHg 87%
    12:00 +15°C° 0.4 mm 1 mps 551 mmHg 84%
    13:00 +16°C° 0.4 mm 1 mps 551 mmHg 81%
    14:00 +16°C° 0.6 mm 1 mps 551 mmHg 83%
    15:00 +15°C° 0.6 mm 0 mps 550 mmHg 86%
    16:00 +14°C° 0.6 mm 0 mps 549 mmHg 89%
    17:00 +14°C° 0.4 mm 0 mps 549 mmHg 91%
    18:00 +13°C° 0.4 mm 0 mps 549 mmHg 94%
    19:00 +12°C° 0.4 mm 0 mps 549 mmHg 97%
    20:00 +12°C° 0.3 mm 0 mps 549 mmHg 97%
    21:00 +12°C° 0.3 mm 0 mps 550 mmHg 97%
    22:00 +12°C° 0.3 mm 1 mps 550 mmHg 97%
    23:00 +11°C° 0.1 mm 0 mps 550 mmHg 97%

    27 April, Saturday

    Time Temperature Precipitation Wind Pressure Humidity
    00:00 +11°C° 0.1 mm 0 mps 549 mmHg 97%
    01:00 +11°C° 0.1 mm 0 mps 549 mmHg 97%
    02:00 +11°C° 0 mm 0 mps 549 mmHg 97%
    03:00 +11°C° 0 mm 0 mps 549 mmHg 97%
    04:00 +11°C° 0 mm 0 mps 548 mmHg 96%
    05:00 +11°C° 0 mm 0 mps 549 mmHg 95%
    06:00 +12°C° 0 mm 0 mps 550 mmHg 94%
    07:00 +12°C° 0 mm 0 mps 550 mmHg 93%
    08:00 +13°C° 0.1 mm 0 mps 551 mmHg 87%
    09:00 +16°C° 0.1 mm 1 mps 552 mmHg 80%
    10:00 +19°C° 0.1 mm 1 mps 553 mmHg 74%
    11:00 +18°C° 1 mm 1 mps 552 mmHg 78%
    12:00 +18°C° 1 mm 1 mps 551 mmHg 81%
    13:00 +18°C° 1 mm 1 mps 550 mmHg 84%
    14:00 +16°C° 1.4 mm 1 mps 550 mmHg 87%
    15:00 +15°C° 1.4 mm 1 mps 549 mmHg 90%
    16:00 +15°C° 1.4 mm 1 mps 548 mmHg 93%
    17:00 +14°C° 1.6 mm 1 mps 548 mmHg 94%
    18:00 +13°C° 1.6 mm 1 mps 549 mmHg 95%
    19:00 +12°C° 1.6 mm 0 mps 549 mmHg 96%
    20:00 +13°C° 0.5 mm 1 mps 549 mmHg 96%
    21:00 +12°C° 0.5 mm 1 mps 549 mmHg 96%
    22:00 +12°C° 0.5 mm 1 mps 549 mmHg 95%
    23:00 +12°C° 0.2 mm 1 mps 549 mmHg 95%

    28 April, Sunday

    Time Temperature Precipitation Wind Pressure Humidity
    00:00 +12°C° 0.2 mm 1 mps 549 mmHg 95%
    01:00 +12°C° 0.2 mm 1 mps 548 mmHg 95%
    02:00 +12°C° 0.1 mm 1 mps 548 mmHg 95%
    03:00 +12°C° 0.1 mm 1 mps 548 mmHg 96%
    04:00 +12°C° 0.1 mm 1 mps 548 mmHg 96%
    05:00 +12°C° 0.1 mm 1 mps 548 mmHg 95%
    06:00 +12°C° 0.1 mm 1 mps 549 mmHg 95%
    07:00 +12°C° 0.1 mm 1 mps 549 mmHg 95%
    08:00 +13°C° 0.1 mm 1 mps 550 mmHg 92%
    09:00 +14°C° 0.1 mm 2 mps 550 mmHg 88%
    10:00 +15°C° 0.1 mm 2 mps 551 mmHg 85%
    11:00 +15°C° 0.1 mm 2 mps 550 mmHg 84%
    12:00 +15°C° 0.1 mm 2 mps 550 mmHg 84%
    13:00 +15°C° 0.1 mm 2 mps 549 mmHg 83%
    14:00 +16°C° 0.2 mm 2 mps 549 mmHg 81%
    15:00 +16°C° 0.2 mm 2 mps 549 mmHg 80%
    16:00 +17°C° 0.2 mm 2 mps 549 mmHg 78%
    17:00 +15°C° 0.2 mm 1 mps 549 mmHg 84%
    18:00 +14°C° 0.2 mm 1 mps 549 mmHg 89%
    19:00 +13°C° 0.2 mm 1 mps 548 mmHg 95%
    20:00 +12°C° 0 mm 1 mps 548 mmHg 95%
    21:00 +12°C° 0 mm 1 mps 548 mmHg 95%
    22:00 +11°C° 0 mm 1 mps 548 mmHg 95%
    23:00 +11°C° 0 mm 1 mps 548 mmHg 95%
    Show more